• In Hungary
  • List of Countries
  • For 7 days
  • Water Temperature
  • Satellite Maps
  • Weather Map
  • News
  • Weather Widgets
  • user-avatar
    Login

    Hourly Weather Pyrnik

    Today, 20 June, Wednesday

    Time Temperature Precipitation Wind Pressure Humidity
    00:00 +19°C° 0 mm 1 mps 761 mmHg 85%
    01:00 +18°C° 0 mm 2 mps 761 mmHg 86%
    02:00 +17°C° 0 mm 2 mps 761 mmHg 89%
    03:00 +18°C° 0 mm 1 mps 762 mmHg 91%
    04:00 +16°C° 0 mm 1 mps 762 mmHg 94%
    05:00 +19°C° 0 mm 1 mps 762 mmHg 86%
    06:00 +21°C° 0 mm 1 mps 762 mmHg 78%
    07:00 +23°C° 0 mm 1 mps 762 mmHg 69%
    08:00 +24°C° 0 mm 1 mps 762 mmHg 64%
    09:00 +25°C° 0 mm 1 mps 762 mmHg 60%
    10:00 +26°C° 0 mm 1 mps 761 mmHg 56%
    11:00 +27°C° 0 mm 1 mps 761 mmHg 53%
    12:00 +27°C° 0 mm 2 mps 761 mmHg 50%
    13:00 +29°C° 0 mm 1 mps 760 mmHg 44%
    14:00 +29°C° 0 mm 1 mps 760 mmHg 45%
    15:00 +29°C° 0 mm 1 mps 759 mmHg 46%
    16:00 +29°C° 0 mm 1 mps 759 mmHg 47%
    17:00 +28°C° 0 mm 1 mps 759 mmHg 51%
    18:00 +27°C° 0 mm 1 mps 758 mmHg 55%
    19:00 +27°C° 0 mm 1 mps 758 mmHg 59%
    20:00 +26°C° 0 mm 1 mps 758 mmHg 61%
    21:00 +25°C° 0 mm 2 mps 758 mmHg 63%
    22:00 +25°C° 0 mm 2 mps 757 mmHg 65%
    23:00 +24°C° 0 mm 2 mps 757 mmHg 68%

    Tomorrow, 21 June, Thursday

    Time Temperature Precipitation Wind Pressure Humidity
    00:00 +23°C° 0 mm 2 mps 757 mmHg 72%
    01:00 +21°C° 0 mm 2 mps 757 mmHg 76%
    02:00 +21°C° 0 mm 2 mps 756 mmHg 78%
    03:00 +20°C° 0 mm 2 mps 756 mmHg 81%
    04:00 +19°C° 0 mm 2 mps 755 mmHg 83%
    05:00 +21°C° 0 mm 2 mps 755 mmHg 78%
    06:00 +23°C° 0 mm 2 mps 754 mmHg 73%
    07:00 +25°C° 0 mm 3 mps 754 mmHg 68%
    08:00 +27°C° 0 mm 3 mps 753 mmHg 61%
    09:00 +28°C° 0 mm 4 mps 753 mmHg 54%
    10:00 +30°C° 0 mm 5 mps 752 mmHg 47%
    11:00 +30°C° 0.1 mm 6 mps 751 mmHg 45%
    12:00 +32°C° 0.1 mm 6 mps 751 mmHg 43%
    13:00 +32°C° 0.1 mm 7 mps 750 mmHg 41%
    14:00 +28°C° 0 mm 7 mps 750 mmHg 47%
    15:00 +26°C° 0 mm 8 mps 751 mmHg 54%
    16:00 +22°C° 0 mm 8 mps 751 mmHg 60%
    17:00 +21°C° 0 mm 8 mps 752 mmHg 59%
    18:00 +18°C° 0 mm 7 mps 752 mmHg 57%
    19:00 +17°C° 0 mm 7 mps 753 mmHg 55%
    20:00 +16°C° 0 mm 6 mps 754 mmHg 55%
    21:00 +14°C° 0 mm 6 mps 754 mmHg 54%
    22:00 +13°C° 0 mm 5 mps 755 mmHg 54%
    23:00 +13°C° 0 mm 5 mps 755 mmHg 57%

    Day after tomorrow, 22 June, Friday

    Time Temperature Precipitation Wind Pressure Humidity
    00:00 +12°C° 0 mm 5 mps 755 mmHg 61%
    01:00 +11°C° 0 mm 4 mps 756 mmHg 65%
    02:00 +10°C° 0 mm 5 mps 756 mmHg 66%
    03:00 +9°C° 0 mm 5 mps 756 mmHg 68%
    04:00 +9°C° 0 mm 5 mps 756 mmHg 70%
    05:00 +9°C° 0 mm 6 mps 756 mmHg 68%
    06:00 +10°C° 0 mm 6 mps 756 mmHg 67%
    07:00 +10°C° 0 mm 7 mps 756 mmHg 66%
    08:00 +11°C° 0.1 mm 7 mps 756 mmHg 68%
    09:00 +11°C° 0.1 mm 6 mps 756 mmHg 69%
    10:00 +11°C° 0.1 mm 6 mps 756 mmHg 70%
    11:00 +14°C° 0.2 mm 6 mps 756 mmHg 65%
    12:00 +15°C° 0.2 mm 6 mps 756 mmHg 59%
    13:00 +17°C° 0.2 mm 6 mps 756 mmHg 53%
    14:00 +17°C° 0.4 mm 6 mps 756 mmHg 54%
    15:00 +17°C° 0.4 mm 6 mps 756 mmHg 55%
    16:00 +17°C° 0.4 mm 5 mps 756 mmHg 55%
    17:00 +17°C° 0.3 mm 5 mps 756 mmHg 59%
    18:00 +17°C° 0.3 mm 4 mps 756 mmHg 63%
    19:00 +16°C° 0.3 mm 3 mps 756 mmHg 67%
    20:00 +14°C° 0 mm 3 mps 756 mmHg 71%
    21:00 +13°C° 0 mm 3 mps 757 mmHg 75%
    22:00 +12°C° 0 mm 3 mps 757 mmHg 79%
    23:00 +12°C° 0 mm 4 mps 757 mmHg 80%

    23 June, Saturday

    Time Temperature Precipitation Wind Pressure Humidity
    00:00 +11°C° 0 mm 4 mps 757 mmHg 81%
    01:00 +11°C° 0 mm 4 mps 757 mmHg 82%
    02:00 +11°C° 0.1 mm 4 mps 757 mmHg 82%
    03:00 +10°C° 0.1 mm 5 mps 757 mmHg 83%
    04:00 +9°C° 0.1 mm 5 mps 757 mmHg 83%
    05:00 +10°C° 0.1 mm 5 mps 757 mmHg 81%
    06:00 +10°C° 0.1 mm 6 mps 758 mmHg 78%
    07:00 +10°C° 0.1 mm 6 mps 758 mmHg 76%
    08:00 +11°C° 0 mm 6 mps 758 mmHg 72%
    09:00 +11°C° 0 mm 6 mps 758 mmHg 68%
    10:00 +13°C° 0 mm 6 mps 758 mmHg 64%
    11:00 +13°C° 0 mm 6 mps 758 mmHg 65%
    12:00 +13°C° 0 mm 6 mps 758 mmHg 67%
    13:00 +13°C° 0 mm 6 mps 758 mmHg 69%
    14:00 +14°C° 0.1 mm 6 mps 758 mmHg 69%
    15:00 +14°C° 0.1 mm 6 mps 758 mmHg 69%
    16:00 +15°C° 0.1 mm 6 mps 758 mmHg 70%
    17:00 +15°C° 0.1 mm 5 mps 758 mmHg 70%
    18:00 +14°C° 0.1 mm 5 mps 758 mmHg 69%
    19:00 +14°C° 0.1 mm 4 mps 758 mmHg 69%
    20:00 +13°C° 0 mm 4 mps 758 mmHg 73%
    21:00 +13°C° 0 mm 4 mps 758 mmHg 77%
    22:00 +12°C° 0 mm 4 mps 759 mmHg 81%
    23:00 +12°C° 0.1 mm 4 mps 759 mmHg 83%

    24 June, Sunday

    Time Temperature Precipitation Wind Pressure Humidity
    00:00 +11°C° 0.1 mm 4 mps 759 mmHg 86%
    01:00 +11°C° 0.1 mm 3 mps 759 mmHg 88%
    02:00 +11°C° 0.1 mm 3 mps 759 mmHg 90%
    03:00 +11°C° 0.1 mm 3 mps 758 mmHg 91%
    04:00 +11°C° 0.1 mm 3 mps 758 mmHg 93%
    05:00 +11°C° 0.5 mm 4 mps 759 mmHg 93%
    06:00 +12°C° 0.5 mm 4 mps 759 mmHg 93%
    07:00 +12°C° 0.5 mm 4 mps 759 mmHg 93%
    08:00 +13°C° 0.3 mm 4 mps 759 mmHg 90%
    09:00 +14°C° 0.3 mm 4 mps 759 mmHg 87%
    10:00 +14°C° 0.3 mm 4 mps 759 mmHg 84%
    11:00 +15°C° 0.3 mm 4 mps 759 mmHg 78%
    12:00 +17°C° 0.3 mm 4 mps 759 mmHg 72%
    13:00 +18°C° 0.3 mm 4 mps 759 mmHg 66%
    14:00 +19°C° 0.2 mm 4 mps 759 mmHg 64%
    15:00 +19°C° 0.2 mm 4 mps 759 mmHg 61%
    16:00 +20°C° 0.2 mm 4 mps 759 mmHg 59%
    17:00 +19°C° 0.2 mm 3 mps 759 mmHg 63%
    18:00 +19°C° 0.2 mm 3 mps 760 mmHg 66%
    19:00 +18°C° 0.2 mm 2 mps 760 mmHg 70%
    20:00 +16°C° 0 mm 2 mps 760 mmHg 76%
    21:00 +15°C° 0 mm 2 mps 760 mmHg 81%
    22:00 +13°C° 0 mm 2 mps 761 mmHg 87%
    23:00 +13°C° 0 mm 2 mps 761 mmHg 89%

    25 June, Monday

    Time Temperature Precipitation Wind Pressure Humidity
    00:00 +13°C° 0 mm 2 mps 761 mmHg 91%
    01:00 +12°C° 0 mm 2 mps 761 mmHg 93%
    02:00 +12°C° 0 mm 1 mps 761 mmHg 93%
    03:00 +12°C° 0 mm 1 mps 761 mmHg 94%
    04:00 +12°C° 0 mm 1 mps 761 mmHg 95%
    05:00 +13°C° 0 mm 1 mps 761 mmHg 88%
    06:00 +15°C° 0 mm 1 mps 762 mmHg 81%
    07:00 +18°C° 0 mm 1 mps 762 mmHg 75%
    08:00 +20°C° 0 mm 1 mps 762 mmHg 67%
    09:00 +21°C° 0 mm 1 mps 762 mmHg 59%
    10:00 +23°C° 0 mm 2 mps 762 mmHg 50%
    11:00 +23°C° 0 mm 2 mps 762 mmHg 50%
    12:00 +23°C° 0 mm 2 mps 762 mmHg 49%
    13:00 +23°C° 0 mm 2 mps 762 mmHg 49%
    14:00 +24°C° 0 mm 2 mps 762 mmHg 48%
    15:00 +24°C° 0 mm 2 mps 762 mmHg 48%
    16:00 +24°C° 0 mm 1 mps 762 mmHg 47%
    17:00 +23°C° 0 mm 1 mps 762 mmHg 51%
    18:00 +23°C° 0 mm 1 mps 762 mmHg 55%
    19:00 +22°C° 0 mm 1 mps 762 mmHg 59%
    20:00 +20°C° 0 mm 1 mps 762 mmHg 64%
    21:00 +19°C° 0 mm 1 mps 762 mmHg 68%
    22:00 +15°C° 0 mm 0 mps 763 mmHg 73%
    23:00 +15°C° 0 mm 0 mps 763 mmHg 75%
    Show more